Location: Kawakawa
(35.3830°S, 174.0670°E)
Time: 17:33:00
(UTC+13:00)

Altair - Pass Details

Date: 15 December 2019
Orbit: 1502 x 1682 km, 47.2° (Epoch: 28 January)

Event Time Altitude Azimuth Distance (km) Brightness Sun altitude
Rises 15:24:45 0° 236° (SW) 4,914 10.4 60.1°
Reaches altitude 10° 15:27:54 10° 236° (SW) 3,939 10.1 59.5°
Maximum altitude 15:38:07 87° 323° (NW) 1,694 9.0 57.5°
Drops below altitude 10° 15:48:18 10° 51° (NE) 3,928 9.5 55.4°
Sets 15:51:26 0° 51° (NE) 4,899 9.9 54.8°
